Location: Madrid
(40.4000°N, 3.6830°W)
Time: 13:07:01
(UTC+01:00)

ISS - Pass Details

Date: 06 December 2019
Orbit: 411 x 421 km, 51.6° (Epoch: 11 December)

Event Time Altitude Azimuth Distance (km) Brightness Sun altitude
Rises 18:23:06 0° 311° (NW) 2,358 0.4 -6.8°
Reaches altitude 10° 18:25:48 10° 335° (NNW) 1,496 -0.9 -7.3°
Maximum altitude 18:27:57 16° 15° (NNE) 1,197 -1.8 -7.6°
Enters shadow 18:30:03 10° 54° (NE) 1,490 -1.6 -8.0°
